Wiscasset, ME

12:00 AM EST on January 19, 2018 (GMT -0500)
Wiscasset

Weather History for KIWI - October, 2013

Change the Weather History Date:

Saturday, October 26, 2013

  Actual Average Record
Temperature  
Mean Temperature 38 °F -  
Max Temperature 51 °F 51 °F 64 °F (2000)
Min Temperature 26 °F 32 °F 24 °F (1997)
Degree Days  
Heating Degree Days 26    
Moisture  
Dew Point 30 °F    
Average Humidity 68    
Maximum Humidity 96    
Minimum Humidity 44    
Precipitation  
Precipitation 0.00 in - - ()
Sea Level Pressure  
Sea Level Pressure 30.02 in    
Wind  
Wind Speed 4 mph (SSW)    
Max Wind Speed 18 mph    
Max Gust Speed 28 mph    
Visibility 10 miles    
Events Rain    
Averages and records for this station are not official NWS values.
T = Trace of Precipitation, MM = Missing Value Source: NWS Daily Summary

Daily Weather History Graph

Daily Weather History Graph

Search for Another Location

Airport or City:

Trip Planner

Search our weather history database for the weather conditions in past years. The results will help you decide how hot, cold, wet, or windy it might be!

Date:

Astronomy

Oct. 26, 2013 Rise Set
Actual Time 7:07 AM EDT 5:37 PM EDT
Civil Twilight 6:37 AM EDT 6:06 PM EDT
Nautical Twilight 6:04 AM EDT 6:40 PM EDT
Astronomical Twilight 5:30 AM EDT 7:14 PM EDT
Moon 11:49 PM EDT (10/26) 1:23 PM EDT (10/26)
Length of Visible Light 11h 28m
Length of Day
10h 29m
Waning Gibbous, 53% of the Moon is Illuminated
Oct 26
Waning Gibbous
Oct 26
Last Quarter
Nov 3
New
Nov 10
First Quarter
Nov 17
Full

Hourly Weather History & Observations

Time (EDT) Temp. Windchill Dew Point Humidity Pressure Visibility Wind Dir Wind Speed Gust Speed Precip Events Conditions
12:53 AM 28.9 °F 25.2 °F 26.1 °F 89% 30.11 in 10.0 mi West 3.5 mph - N/A   Clear
1:53 AM 30.0 °F - 27.0 °F 88% 30.11 in 10.0 mi Calm Calm - N/A   Mostly Cloudy
2:53 AM 28.9 °F - 26.1 °F 89% 30.11 in 10.0 mi Calm Calm - N/A   Clear
3:53 AM 28.0 °F - 25.0 °F 88% 30.11 in 10.0 mi Calm Calm - N/A   Clear
4:53 AM 27.0 °F - 23.0 °F 85% 30.12 in 10.0 mi Calm Calm - N/A   Clear
5:53 AM 26.1 °F - 24.1 °F 92% 30.12 in 10.0 mi Calm Calm - N/A   Clear
6:53 AM 26.1 °F - 24.1 °F 92% 30.12 in 10.0 mi Calm Calm - N/A   Clear
7:53 AM 28.9 °F - 28.0 °F 96% 30.12 in 10.0 mi Calm Calm - N/A   Clear
8:53 AM 36.0 °F - 33.1 °F 89% 30.12 in 10.0 mi Calm Calm - N/A   Clear
9:53 AM 44.1 °F 40.1 °F 34.0 °F 68% 30.10 in 10.0 mi SSW 6.9 mph - N/A   Scattered Clouds
10:53 AM 46.9 °F - 34.0 °F 61% 30.07 in 10.0 mi SSW 11.5 mph - N/A   Partly Cloudy
11:53 AM 50.0 °F - 33.1 °F 52% 30.04 in 10.0 mi SW 9.2 mph - N/A   Clear
12:53 PM 50.0 °F - 33.1 °F 52% 30.01 in 10.0 mi SSW 9.2 mph 19.6 mph N/A   Partly Cloudy
1:53 PM 48.9 °F - 33.1 °F 54% 30.00 in 10.0 mi SSW 10.4 mph 18.4 mph N/A   Overcast
2:53 PM 48.9 °F - 35.1 °F 59% 29.98 in 10.0 mi SSW 10.4 mph 17.3 mph N/A   Overcast
3:53 PM 48.0 °F - 28.0 °F 46% 29.97 in 10.0 mi Variable 5.8 mph - N/A   Overcast
4:53 PM 46.9 °F - 30.9 °F 54% 29.93 in 10.0 mi SSW 3.5 mph - N/A   Overcast
5:53 PM 46.0 °F - 32.0 °F 58% 29.91 in 10.0 mi Calm Calm - N/A   Partly Cloudy
6:53 PM 48.0 °F - 32.0 °F 54% 29.91 in 10.0 mi SSW 5.8 mph - N/A   Clear
7:53 PM 44.1 °F - 35.1 °F 71% 29.89 in 10.0 mi Calm Calm - N/A   Clear
8:53 PM 51.1 °F - 30.9 °F 46% 29.89 in 10.0 mi SW 5.8 mph - N/A   Mostly Cloudy
9:53 PM 51.1 °F - 30.0 °F 44% 29.88 in 10.0 mi SW 10.4 mph 20.7 mph N/A   Overcast
10:53 PM 48.9 °F - 32.0 °F 52% 29.88 in 10.0 mi SSW 18.4 mph 27.6 mph 0.00 in Rain Light Rain
11:53 PM 48.0 °F - 34.0 °F 58% 29.89 in 10.0 mi SW 6.9 mph 20.7 mph 0.00 in Rain Light Rain